Skip Page Navigation
NASA JPL Caltech
NASA Logo - Jet Propulsion Laboratory + View the NASA Portal
+ Center for Near-Earth Object Studies
JPL Home Earth Solar System Stars & Galaxies Technology
JPL Solar System Dynamics
BODIES ORBITS EPHEMERIDES TOOLS PHYSICAL DATA DISCOVERY FAQ SITE MAP
IMPORTANT: The SSD Announcement email list is now available. Major changes are coming in the near future, including possible hostname and/or URL changes. To be notified of such changes, subscribe to this email list.

Please visit this page for more details.


JPL Small-Body Database Browser
Search: [ help ]  
46622 (1994 EF7)
Classification: Main-belt Asteroid          SPK-ID: 2046622
Ephemeris | Orbit Diagram | Orbital Elements | Mission Design | Physical Parameters | Discovery Circumstances | Close-Approach Data ]

[ show orbit diagram ]
Orbital Elements at Epoch 2458600.5 (2019-Apr-27.0) TDB
Reference: JPL 18 (heliocentric ecliptic J2000)
 Element Value Uncertainty (1-sigma)   Units 
e .08900339255645541 5.7531e-08  
a 2.306336121705626 1.2478e-08 au
q 2.101064382498328 1.3097e-07 au
i 5.726959817483421 4.1306e-06 deg
node 52.20376004891197 6.0493e-05 deg
peri 138.0643400401562 6.525e-05 deg
M 43.28872635073817 2.5199e-05 deg
tp 2458446.665184276747
(2018-Nov-24.16518428)
8.9505e-05 TDB
period 1279.329246410748
3.50
1.0382e-05
2.842e-08
d
yr
n .2813974596531787 2.2836e-09 deg/d
Q 2.511607860912926 1.3588e-08 au
  Orbit Determination Parameters
   # obs. used (total)      723  
   data-arc span      8799 days (24.09 yr)  
   first obs. used      1994-02-08  
   last obs. used      2018-03-13  
   planetary ephem.      DE431  
   SB-pert. ephem.      SB431-N16  
   condition code      0  
   norm. resid. RMS      .57286  
   source      ORB  
   producer      Otto Matic  
   solution date      2019-Jul-13 02:38:31  

Additional Information
 Earth MOID = 1.10443 au 
 Jupiter MOID = 2.44873 au 
 T_jup = 3.576 
[ show covariance matrix ]

Ephemeris | Orbit Diagram | Orbital Elements | Mission Design | Physical Parameters | Discovery Circumstances | Close-Approach Data ]

Physical Parameter Table
Parameter Symbol Value Units Sigma Reference Notes
absolute magnitude H 15.5   n/a MPO337631  
rotation period rot_per 4.938 h n/a LCDB (Rev. 2019-January); Warner et al., 2009 Result based on less than full coverage, so that the period may be wrong by 30 percent or so.
Published Reference List:
[Waszczak, A.; Chang, C.-K.; Ofeck, E.O.; Laher, F.; et al. (2015) Astron. J. 150, A75.]

46622 (1994 EF7)          Discovered 1994-Mar-09 by Elst, E. W. at Caussols
Reference: 20020921/Numbers.arcLast Updated: 2004-04-19

[ show close-approach data ]
Alternate Designations
 1994 EF7 = 1999 TS214 
Ephemeris | Orbit Diagram | Orbital Elements | Mission Design | Physical Parameters | Discovery Circumstances | Close-Approach Data ]
ABOUT SSD CREDITS/AWARDS PRIVACY/COPYRIGHT GLOSSARY LINKS
FirstGov
(server date/time)  
NASA Home Page
Site Manager:   Ryan S. Park
Webmaster  Alan B. Chamberlin